SKYSAT-C16 (45789 NORAD) Tracking and Keplerian Element Data

This shows tracking and keplerian element data for the satellite.

Feedback or suggestion? Click here.




ElementValue
Catalog45789
NameSKYSAT-C16
Epoch Orbit349
Epoch Day186.42860239
Epoch Year2020
RAAN193.3819
Inclination52.9995
Eccentricity0.0008145
Argument of Perigee75.1618
Mean Anonmoly285.0297
Mean Motion15.65572277
Decay Rate3.933E-05
L11 45789U 20038BM 20186.42860239 .00003933 00000-0 43853-4 0 9992
L22 45789 52.9995 193.3819 0008145 75.1618 285.0297 15.65572277 3490

Live tracking and technical data element details for SKYSAT-C16 (NORAD 45789). SKYSAT-C16 can be tracked NOW for your location showing map with azimuth and elevation plus other details from your city location.

Track the satellite on the map from your city or location and see movement details for azimuth, elevation, latitude, longitude, range, height, and movement on the map or in text.







IsCatalogInMostPopularTable: catalog: 45789, numindb: 5
Update: records affected: 1



GetName: 45789 SKYSAT-C16

Hit Count: updated at: Sun, 05 Jul 2020 15:53:18 GMT